| time (UTC) | temp F | wind direction | speed MPH | gust MPH | rain 1hr in | rain 24hr in | rain mn in | humidity % | barometer mb |
| 20260506223209 | 45 | 282 | 9.0 | 0.0 | 0.00 | 0.00 | 0.00 | 94 | 1009.9 |
| 20260506220209 | 45 | 265 | 9.0 | 0.0 | 0.00 | 0.00 | 0.00 | 94 | 1009.7 |
| 20260506213209 | 46 | 248 | 9.0 | 0.0 | 0.00 | 0.00 | 0.24 | 93 | 1009.8 |
| 20260506210210 | 46 | 249 | 10.0 | 0.0 | 0.00 | 0.00 | 0.24 | 93 | 1009.8 |
| 20260506203210 | 47 | 281 | 10.0 | 0.0 | 0.00 | 0.00 | 0.24 | 91 | 1009.6 |
| 20260506200210 | 47 | 294 | 13.0 | 0.0 | 0.00 | 0.00 | 0.24 | 91 | 1009.4 |
| 20260506193215 | 47 | 269 | 16.0 | 0.0 | 0.00 | 0.00 | 0.24 | 91 | 1009.0 |
| 20260506190211 | 47 | 284 | 16.0 | 0.0 | 0.00 | 0.00 | 0.24 | 91 | 1008.4 |
| 20260506183209 | 48 | 225 | 15.0 | 0.0 | 0.00 | 0.00 | 0.24 | 91 | 1008.1 |
| 20260506180216 | 49 | 253 | 9.0 | 0.0 | 0.00 | 0.00 | 0.24 | 92 | 1008.0 |
| 20260506173210 | 48 | 271 | 18.0 | 0.0 | 0.00 | 0.00 | 0.24 | 91 | 1007.7 |
| 20260506170215 | 49 | 256 | 16.0 | 0.0 | 0.00 | 0.00 | 0.24 | 93 | 1007.5 |
| 20260506163210 | 48 | 262 | 15.0 | 0.0 | 0.00 | 0.00 | 0.24 | 93 | 1007.1 |
| 20260506160210 | 48 | 259 | 24.0 | 0.0 | 0.00 | 0.00 | 0.22 | 93 | 1007.3 |
| 20260506153210 | 48 | 239 | 22.0 | 0.0 | 0.00 | 0.00 | 0.21 | 94 | 1007.2 |
| 20260506150210 | 47 | 257 | 32.0 | 0.0 | 0.00 | 0.00 | 0.21 | 94 | 1006.6 |
| 20260506143210 | 48 | 282 | 41.0 | 0.0 | 0.00 | 0.00 | 0.09 | 91 | 1006.8 |
| 20260506140210 | 59 | 261 | 20.0 | 0.0 | 0.00 | 0.00 | 0.02 | 77 | 1004.8 |
| 20260506133211 | 60 | 222 | 11.0 | 0.0 | 0.00 | 0.00 | 0.02 | 80 | 1004.5 |
| 20260506130211 | 57 | 214 | 8.0 | 0.0 | 0.00 | 0.00 | 0.01 | 81 | 1004.2 |
| 20260506123210 | 58 | 225 | 8.0 | 0.0 | 0.00 | 0.00 | 0.01 | 79 | 1004.6 |
| 20260506120210 | 59 | 267 | 11.0 | 0.0 | 0.00 | 0.00 | 0.01 | 77 | 1004.2 |
| 20260506113217 | 60 | 86 | 2.0 | 0.0 | 0.00 | 0.00 | 0.01 | 69 | 1004.0 |
| 20260506110210 | 60 | 201 | 1.0 | 0.0 | 0.00 | 0.00 | 0.01 | 68 | 1004.4 |
| 20260506100213 | 58 | 96 | 7.0 | 0.0 | 0.00 | 0.00 | 0.01 | 75 | 1004.7 |
| 20260506093211 | 56 | 104 | 8.0 | 0.0 | 0.00 | 0.00 | 0.01 | 81 | 1004.8 |
| 20260506090211 | 56 | 242 | 4.0 | 0.0 | 0.00 | 0.00 | 0.01 | 85 | 1005.1 |
| 20260506083211 | 55 | 261 | 4.0 | 0.0 | 0.00 | 0.00 | 0.01 | 80 | 1005.2 |
| 20260506080212 | 54 | 109 | 5.0 | 0.0 | 0.00 | 0.00 | 0.01 | 83 | 1004.8 |
| 20260506073211 | 53 | 265 | 3.0 | 0.0 | 0.00 | 0.00 | 0.01 | 91 | 1005.2 |
| 20260506070212 | 52 | 57 | 2.0 | 0.0 | 0.00 | 0.00 | 0.01 | 93 | 1005.0 |
| 20260506060210 | 49 | 109 | 4.0 | 0.0 | 0.00 | 0.00 | 0.01 | 94 | 1005.4 |
| 20260506050211 | 47 | 59 | 3.0 | 0.0 | 0.00 | 0.00 | 0.01 | 93 | 1005.6 |
| 20260506043211 | 47 | 288 | 0.0 | 0.0 | 0.00 | 0.00 | 0.01 | 93 | 1005.6 |
| 20260506040211 | 47 | 238 | 0.0 | 0.0 | 0.00 | 0.00 | 0.00 | 92 | 1005.9 |
| 20260506033211 | 47 | 238 | 0.0 | 0.0 | 0.00 | 0.00 | 0.00 | 91 | 1006.1 |
| 20260506030212 | 48 | 303 | 2.0 | 0.0 | 0.00 | 0.00 | 0.00 | 91 | 1006.3 |
| 20260506023211 | 48 | 189 | 0.0 | 0.0 | 0.00 | 0.00 | 0.00 | 92 | 1006.7 |
| 20260506020212 | 48 | 189 | 0.0 | 0.0 | 0.00 | 0.00 | 0.00 | 93 | 1006.9 |
| 20260506013211 | 48 | 236 | 2.0 | 0.0 | 0.00 | 0.00 | 0.00 | 93 | 1007.0 |
| 20260506010213 | 48 | 289 | 2.0 | 0.0 | 0.00 | 0.00 | 0.00 | 93 | 1007.1 |
| 20260506003209 | 48 | 200 | 2.0 | 0.0 | 0.00 | 0.00 | 0.00 | 93 | 1007.7 |
| 20260506000211 | 49 | 243 | 2.0 | 0.0 | 0.00 | 0.00 | 0.00 | 92 | 1007.5 |
| 20260505233209 | 49 | 270 | 0.0 | 0.0 | 0.00 | 0.00 | 0.00 | 92 | 1008.0 |
| 20260505230209 | 49 | 282 | 6.0 | 0.0 | 0.00 | 0.00 | 0.00 | 92 | 1007.7 |